TimeEDT,TemperatureF,Dew PointF,Humidity,Sea Level PressureIn,VisibilityMPH,Wind Direction,Wind SpeedMPH,Gust SpeedMPH,PrecipitationIn,Events,Conditions,WindDirDegrees,DateUTC
12:53 AM,59.0,46.9,64,30.14,10.0,Calm,Calm,-,N/A,,Clear,0,2013-06-05 04:53:00
1:53 AM,54.0,48.0,80,30.13,10.0,Calm,Calm,-,N/A,,Clear,0,2013-06-05 05:53:00
2:53 AM,53.1,48.9,86,30.12,10.0,Calm,Calm,-,N/A,,Clear,0,2013-06-05 06:53:00
3:53 AM,52.0,48.9,89,30.12,10.0,Calm,Calm,-,N/A,,Clear,0,2013-06-05 07:53:00
4:53 AM,51.1,48.9,92,30.12,9.0,Calm,Calm,-,N/A,,Clear,0,2013-06-05 08:53:00
5:53 AM,50.0,48.0,93,30.12,7.0,Calm,Calm,-,N/A,,Clear,0,2013-06-05 09:53:00
6:53 AM,53.1,50.0,89,30.13,9.0,Calm,Calm,-,N/A,,Partly Cloudy,0,2013-06-05 10:53:00
7:53 AM,55.9,51.1,84,30.13,10.0,Calm,Calm,-,N/A,,Mostly Cloudy,0,2013-06-05 11:53:00
8:53 AM,61.0,53.1,75,30.12,10.0,Calm,Calm,-,N/A,,Clear,0,2013-06-05 12:53:00
9:53 AM,66.9,53.1,61,30.10,10.0,ESE,4.6,-,N/A,,Clear,120,2013-06-05 13:53:00
10:53 AM,71.1,55.0,57,30.09,10.0,Calm,Calm,-,N/A,,Partly Cloudy,0,2013-06-05 14:53:00
11:53 AM,75.9,57.9,54,30.08,10.0,Calm,Calm,-,N/A,,Partly Cloudy,0,2013-06-05 15:53:00
12:53 PM,77.0,57.9,52,30.03,10.0,SE,5.8,-,N/A,,Partly Cloudy,140,2013-06-05 16:53:00
1:53 PM,80.1,60.1,50,30.01,10.0,Calm,Calm,-,N/A,,Clear,0,2013-06-05 17:53:00
2:53 PM,81.0,57.0,44,30.01,10.0,Calm,Calm,-,N/A,,Partly Cloudy,0,2013-06-05 18:53:00
3:53 PM,82.0,57.0,42,29.99,10.0,SSW,5.8,-,N/A,,Mostly Cloudy,210,2013-06-05 19:53:00
4:53 PM,79.0,61.0,54,29.99,10.0,SSE,10.4,16.1,N/A,,Overcast,160,2013-06-05 20:53:00
5:53 PM,77.0,63.0,62,29.97,10.0,East,6.9,-,N/A,,Mostly Cloudy,80,2013-06-05 21:53:00
6:18 PM,73.4,62.6,69,29.99,8.0,SE,10.4,-,0.00,Rain-Thunderstorm,Light Thunderstorms and Rain,130,2013-06-05 22:18:00
6:53 PM,71.1,63.0,75,29.97,10.0,ESE,8.1,-,0.01,,Mostly Cloudy,120,2013-06-05 22:53:00
7:53 PM,72.0,60.1,66,29.94,10.0,ESE,8.1,-,N/A,,Scattered Clouds,120,2013-06-05 23:53:00
8:53 PM,71.1,57.9,63,29.94,10.0,ESE,11.5,-,N/A,,Clear,120,2013-06-06 00:53:00
9:53 PM,71.1,57.9,63,29.95,10.0,South,4.6,-,N/A,,Clear,170,2013-06-06 01:53:00
10:53 PM,71.1,59.0,66,29.96,10.0,SSE,8.1,-,N/A,,Clear,160,2013-06-06 02:53:00
11:53 PM,71.1,60.1,68,29.97,10.0,SSW,4.6,-,N/A,,Overcast,200,2013-06-06 03:53:00